Flag for Pakistan Weather past 2 weeks in Lahore, Pakistan

Now
86 °F

Clear.


Feels Like: 99 °F
Forecast: 84 / 106 °F
Wind: 6 mph from Southwest

Location: Lahore Airport

Current Time: Jul 4, 2015 at 3:24:18 AM

Latest Report: Jul 4, 2015 at 3:00 AM


Visibility: 2 mi

Pressure: 29.50 "Hg

Humidity: 79%

Dew point: 79 °F

Location of LahoreLocation

Historic Weather in Lahore — Graph

°F

Lahore temperature yesterday

Maximum temperature yesterday: 100 °F (at 12:55 PM)
Minimum temperature yesterday: 81 °F (at 3:55 AM)
Average temperature yesterday: 91 °F

Past Weeks' High & Low Weather Summary

 TemperatureHumidityPressure
High109 °F (Jun 19, 1:55 PM)100% (Jun 23, 11:25 AM)29.74 "Hg (Jun 23, 11:25 AM)
Low73 °F (Jun 25, 5:00 AM)26% (Jun 28, 4:00 PM)29.36 "Hg (Jun 22, 4:55 PM)
Average90 °F56%29.51 "Hg
* Reported Jun 19 1:25 AM — Jul 4 1:55 AM, Lahore, Weather by CustomWeather, © 2015

Note: Actual official high and low records may vary slightly from our data, if they occured in-between our weather recording intervals... More about our weather records

Advertising

Lahore weather history for previous 24 hours

 ConditionsComfort  
Time TempWeatherWind HumidityBarometerVisibility
1:55 AM
Sat, Jul 4
88 °FClear.7 mph75%29.53 "Hg2 mi
1:25 AM88 °FPassing clouds.7 mph75%29.53 "Hg2 mi
12:55 AM88 °FPassing clouds.8 mph75%29.53 "Hg2 mi
12:25 AM88 °FPassing clouds.10 mph75%29.53 "Hg2 mi
11:55 PM
Fri, Jul 3
90 °FPassing clouds.10 mph71%29.53 "Hg2 mi
11:25 PM90 °FPassing clouds.5 mph71%29.53 "Hg2 mi
10:55 PM91 °FPassing clouds.No wind67%29.53 "Hg2 mi
10:25 PM91 °FPassing clouds.No wind67%29.53 "Hg2 mi
9:55 PM91 °FSmoke.5 mph67%29.53 "Hg2 mi
9:25 PM91 °FPassing clouds.3 mph63%29.53 "Hg2 mi
8:55 PM91 °FPassing clouds.3 mph63%29.53 "Hg2 mi
8:25 PM93 °FPassing clouds.6 mph63%29.53 "Hg2 mi
7:55 PM93 °FPassing clouds.6 mph63%29.53 "Hg2 mi
7:25 PM93 °FPassing clouds.6 mph59%29.53 "Hg2 mi
6:55 PM95 °FScattered clouds.6 mph56%29.50 "Hg2 mi
6:25 PM95 °FScattered clouds.6 mph56%29.50 "Hg2 mi
5:55 PM97 °FScattered clouds.6 mph53%29.50 "Hg2 mi
5:25 PM97 °FScattered clouds.7 mph53%29.50 "Hg2 mi
4:55 PM97 °FScattered clouds.6 mph53%29.50 "Hg2 mi
4:25 PM99 °FScattered clouds.5 mph47%29.50 "Hg2 mi
3:55 PM99 °FScattered clouds.7 mph47%29.53 "Hg2 mi
3:25 PM99 °FScattered clouds.6 mph47%29.53 "Hg2 mi
2:55 PM99 °FScattered clouds.5 mph47%29.53 "Hg2 mi
2:30 PM99 °FScattered clouds.5 mph50%29.56 "Hg2 mi
1:55 PM99 °FBroken clouds.7 mph50%29.56 "Hg2 mi
1:25 PM99 °FBroken clouds.9 mph47%29.56 "Hg2 mi
12:55 PM100 °FBroken clouds.9 mph45%29.59 "Hg2 mi
12:25 PM99 °FBroken clouds.No wind47%29.59 "Hg2 mi
11:55 AM97 °FScattered clouds.7 mph50%29.59 "Hg3 mi
11:25 AM97 °FScattered clouds.7 mph50%29.59 "Hg3 mi
10:55 AM97 °FPassing clouds.No wind50%29.59 "Hg4 mi
10:25 AM95 °FPassing clouds.5 mph53%29.59 "Hg4 mi
9:55 AM95 °FPassing clouds.No wind53%29.59 "Hg4 mi
8:55 AM91 °FScattered clouds.No wind59%29.59 "Hg4 mi
8:25 AM90 °FScattered clouds.5 mph59%29.59 "Hg3 mi
7:55 AM86 °FClear.No wind70%29.59 "Hg3 mi
7:25 AM82 °FScattered clouds.3 mph79%29.59 "Hg2 mi
6:55 AM82 °FScattered clouds.No wind79%29.59 "Hg2 mi
6:25 AM82 °FScattered clouds.5 mph74%29.59 "Hg2 mi
5:55 AM82 °FScattered clouds.No wind79%29.56 "Hg2 mi
5:25 AM81 °FScattered clouds.3 mph79%29.56 "Hg2 mi
4:55 AM81 °FThundershowers. Passing clouds.6 mph79%29.56 "Hg2 mi
4:25 AM81 °FThunderstorms. Partly cloudy.6 mph79%29.59 "Hg2 mi
3:55 AM81 °FThunderstorms. Partly cloudy.6 mph79%29.59 "Hg2 mi
3:25 AM82 °FThunderstorms. Partly cloudy.10 mph74%29.59 "Hg2 mi
Weather by CustomWeather, © 2015

See weather overviewHow to use our weather pages